Wind_Speed
35 35 35 35 35 35 36 36 38 38 38 36 36 36 36 36 36 37 37 37 38 38 38 38 39 39 39 40 40 40 41 41 42 43 43 43 44 46 47 48 49 49 50 50
35 34 36 36 35 36 37 37 38 38 37 35 36 36 35 35 35 35 35 36 36 37 36 36 37 37 38 39 39 40 40 42 43 44 44 44 45 45 45 47 48 50 51 51
36 35 36 36 35 36 36 36 37 37 35 35 35 35 35 35 35 35 34 34 34 34 35 35 36 36 37 38 39 40 40 42 43 43 44 45 45 45 46 46 48 50 51 51
37 36 37 35 35 35 35 35 35 36 35 35 35 35 35 35 35 35 34 34 33 33 34 34 35 36 37 37 38 40 41 41 42 43 43 43 44 46 46 47 48 48 50 51
37 37 37 34 34 35 35 34 34 35 35 36 36 35 35 35 35 34 34 33 33 33 33 34 34 35 36 37 38 38 40 41 41 42 43 44 44 45 46 46 47 48 49 49
35 36 36 34 34 35 35 35 35 36 36 36 36 35 35 35 35 34 34 33 34 34 33 34 34 35 35 37 38 38 39 40 40 41 42 42 43 44 44 45 45 46 47 49
34 35 35 34 34 34 35 35 35 36 36 36 35 35 34 34 34 34 34 34 34 34 34 34 35 35 36 37 38 38 38 38 39 40 41 41 42 42 43 44 45 46 47 47
33 34 34 34 34 34 35 35 35 35 35 35 35 34 34 34 34 34 34 35 35 35 35 35 35 36 37 37 37 38 37 38 38 39 41 41 41 42 43 44 44 45 45 46
31 31 31 31 32 33 34 34 34 34 34 34 34 35 35 35 35 35 35 35 36 36 36 36 37 37 37 37 37 37 38 38 39 39 40 40 41 42 42 43 43 43 44 45
30 29 30 30 30 31 32 32 32 32 32 33 33 34 34 35 35 35 35 35 36 36 36 36 36 36 37 37 37 38 38 39 39 39 40 41 41 41 41 41 41 42 42 43
29 28 29 29 29 30 30 31 31 31 32 32 32 33 33 33 34 34 34 34 34 35 35 36 36 36 36 36 36 37 38 37 37 38 39 39 39 39 39 39 39 39 40 40
30 29 29 28 29 30 30 31 31 31 32 32 32 32 32 32 32 32 32 33 34 35 35 35 35 35 35 35 35 35 35 34 35 35 36 36 36 36 37 38 38 38 38 38
29 28 29 28 29 29 30 30 30 30 30 31 31 31 31 31 31 31 32 33 33 33 33 33 33 32 32 33 33 33 33 33 33 33 33 34 34 35 35 36 36 37 37 37
26 26 27 27 28 28 28 28 29 29 29 30 30 31 31 31 31 32 32 32 32 32 32 31 31 31 32 33 33 32 32 32 32 33 33 34 34 34 35 35 35 36 37 37
24 25 25 25 26 27 27 28 28 28 29 29 30 30 30 30 30 30 30 30 31 31 31 30 30 31 31 31 32 32 32 32 32 33 33 34 35 35 35 35 35 36 36 37
24 24 25 25 26 26 27 27 27 27 28 28 29 30 30 30 30 30 30 30 30 30 30 30 30 30 30 30 31 31 32 32 33 33 34 34 35 36 36 35 35 35 35 35
23 24 24 24 24 25 25 26 26 27 28 28 29 30 30 30 30 30 31 31 30 30 30 30 30 31 31 31 32 32 32 33 34 34 34 35 35 35 35 35 34 34 34 34
23 23 24 24 24 24 25 26 26 27 27 28 29 29 30 30 30 30 30 30 30 30 30 31 31 32 32 32 32 33 33 34 34 34 35 34 34 34 34 33 33 33 32 32
23 24 24 24 24 25 26 26 27 27 27 28 28 29 29 29 29 29 29 29 30 30 30 31 31 31 32 32 33 33 34 34 34 34 34 33 33 32 32 32 31 31 31 31
24 24 25 25 25 26 26 27 27 27 28 28 29 29 28 28 28 29 29 29 30 30 30 31 31 31 32 33 34 34 34 34 34 34 33 33 33 32 31 31 31 31 31 31
25 25 25 26 26 26 27 27 27 27 28 28 29 29 28 28 29 29 29 29 30 30 31 31 32 33 33 34 34 34 34 34 34 34 34 34 33 32 32 32 31 31 31 30
26 26 26 26 26 27 27 28 28 28 28 29 29 29 29 29 29 29 30 30 30 30 31 32 33 33 33 34 34 35 35 35 35 34 34 33 33 32 32 31 30 30 29 28
26 26 26 27 27 27 28 28 28 28 29 29 29 29 30 30 30 30 30 30 30 31 31 32 33 33 34 34 34 35 35 35 35 34 33 32 31 31 30 29 28 27 26 25
27 27 27 28 27 28 28 28 29 29 29 30 30 31 31 31 31 30 30 30 30 31 32 32 33 33 33 34 34 34 34 34 33 32 31 31 30 29 27 26 26 25 24 24
27 27 27 28 28 28 28 29 29 30 30 30 31 31 31 31 30 30 30 30 31 31 31 32 33 33 33 33 33 33 32 32 31 30 29 28 27 26 25 24 24 24 23 23
27 27 27 27 28 28 28 29 29 30 30 30 30 30 30 30 30 30 30 30 31 31 31 32 32 32 32 32 31 31 30 29 28 27 26 24 24 23 23 23 23 23 22 21
26 27 27 27 28 28 28 29 29 30 30 29 29 29 29 29 29 29 30 30 31 31 31 32 32 31 31 30 30 29 27 26 25 24 23 22 22 22 21 21 21 21 20 19
Wind_Direction
281 281 280 281 281 281 280 281 282 284 284 285 285 284 284 284 283 281 281 279 279 278 277 276 275 273 271 270 271 271 271 271 272 272 271 272 272 270 270 269 267 265 264 263
280 281 280 280 282 283 282 282 283 283 284 284 283 283 284 284 285 284 283 281 280 280 279 278 277 274 273 272 271 271 271 272 272 272 271 273 273 272 272 270 267 266 266 265
281 280 281 281 283 284 283 284 283 283 283 282 282 283 285 285 284 284 284 283 282 281 280 279 277 276 274 274 273 273 273 273 274 274 273 273 273 273 273 271 268 268 266 265
281 281 281 284 284 284 284 285 284 283 283 283 283 284 285 285 285 285 285 284 285 285 284 281 279 278 277 276 275 275 275 275 275 275 275 273 274 274 273 272 271 270 268 267
282 282 283 284 286 285 284 285 284 284 284 284 284 285 284 284 284 284 285 285 285 285 285 284 282 281 280 279 278 278 278 278 277 277 275 273 274 275 274 275 273 272 271 269
282 283 284 287 287 286 285 285 284 284 284 284 286 286 285 282 281 283 284 284 284 284 285 285 284 283 283 282 281 281 281 280 279 278 277 276 276 276 276 276 275 274 273 272
282 283 284 286 287 287 287 287 285 285 284 285 286 287 286 283 283 283 283 283 283 284 285 286 286 285 285 284 284 283 282 281 280 279 279 279 279 279 278 278 277 276 274 273
285 286 288 286 285 286 288 288 287 287 286 286 286 287 286 286 285 285 285 285 285 285 286 286 287 286 286 285 285 284 283 282 282 282 283 283 283 282 281 281 279 278 276 274
288 287 287 287 287 287 288 289 289 288 287 287 287 286 286 286 286 287 287 287 288 287 287 286 287 286 286 285 285 284 284 284 284 285 286 286 286 285 284 283 281 279 277 276
288 288 287 285 285 287 289 289 289 288 288 288 288 288 288 287 286 286 287 288 288 288 287 287 288 288 287 286 285 286 286 286 285 286 286 287 287 286 285 284 283 282 280 278
288 289 286 285 286 287 287 288 289 288 289 289 290 291 291 290 289 288 289 289 289 289 288 288 289 289 288 288 288 288 288 287 287 287 287 287 287 286 286 286 286 285 283 281
288 288 286 286 286 288 289 289 288 287 289 289 291 292 292 292 291 290 290 292 292 291 291 290 291 290 289 290 290 289 289 289 290 290 290 288 288 288 287 288 287 286 285 283
288 287 288 289 290 290 291 291 290 289 289 290 291 293 292 292 292 292 293 295 295 294 293 292 290 290 290 291 292 292 291 291 291 291 291 291 291 290 289 289 288 287 285 284
288 289 290 291 291 292 291 292 292 291 291 292 293 294 294 294 294 295 295 297 297 297 296 294 292 291 291 292 293 293 293 292 292 292 292 293 293 293 292 291 289 288 287 285
290 291 292 294 294 294 294 293 294 294 294 294 294 295 296 296 297 297 297 297 298 297 297 296 295 294 294 294 295 295 294 294 294 294 294 294 294 295 295 293 291 289 288 286
294 295 295 296 297 297 297 296 296 296 295 296 296 297 297 297 297 297 297 298 298 298 297 297 297 296 296 296 295 295 296 296 296 296 296 296 296 296 296 294 292 291 289 287
296 296 296 297 298 299 300 300 301 300 299 299 299 299 298 298 297 297 297 297 298 297 297 297 297 297 296 295 295 295 296 296 297 297 297 297 297 297 296 295 293 292 291 290
296 297 298 298 299 300 301 302 302 302 301 301 301 302 301 299 297 297 297 297 297 297 297 296 296 297 297 296 296 296 296 296 296 296 297 297 298 298 297 295 294 293 293 291
296 297 298 299 299 300 301 302 302 303 303 303 304 304 304 303 301 298 297 297 297 297 297 297 297 298 298 298 298 298 298 297 297 297 297 298 298 298 297 296 295 295 294 292
297 298 299 300 300 300 301 302 304 304 304 304 305 305 304 303 302 301 300 299 298 298 298 297 298 299 299 299 299 299 299 299 298 298 299 299 298 298 297 297 297 296 295 294
297 297 298 299 300 301 303 304 304 305 305 306 306 306 305 304 303 303 302 301 301 300 300 300 299 299 300 300 300 300 300 300 300 300 300 299 297 297 296 296 296 296 296 295
296 296 297 298 299 301 303 304 305 305 305 306 306 305 305 305 304 304 303 303 303 302 302 302 301 301 300 300 300 300 300 300 299 299 299 298 297 296 295 296 295 295 295 295
295 296 297 299 300 301 303 304 305 306 305 305 305 305 305 305 305 305 304 304 304 304 303 303 304 303 302 302 301 301 301 300 299 298 297 297 296 295 295 295 295 294 294 294
296 296 297 298 299 301 302 304 305 305 305 305 305 306 307 306 306 305 305 305 305 305 306 306 305 305 304 304 303 302 301 300 299 298 297 296 296 296 295 295 294 294 293 293
296 297 297 297 298 300 302 303 304 304 305 306 306 307 307 307 307 307 307 307 307 307 308 308 307 307 306 306 306 305 304 302 300 298 297 296 295 295 295 295 295 295 294 292
297 297 298 298 298 300 302 302 304 305 306 306 307 307 308 308 308 308 308 308 309 309 309 309 309 308 308 308 308 308 307 305 303 300 298 296 295 295 296 296 296 296 295 293
297 298 298 298 299 301 302 303 304 305 306 306 307 308 308 308 309 309 310 310 309 310 310 310 310 310 309 310 309 309 308 308 306 302 299 298 297 296 297 298 298 297 296 295
Height
5579 5578 5576 5575 5575 5573 5570 5569 5567 5567 5565 5565 5562 5560 5558 5556 5554 5552 5550 5549 5547 5545 5544 5542 5541 5540 5539 5538 5538 5537 5536 5535 5534 5533 5532 5531 5530 5530 5529 5529 5529 5530 5530 5531
5570 5569 5566 5566 5566 5563 5561 5560 5558 5556 5556 5555 5552 5550 5548 5546 5544 5542 5540 5538 5536 5534 5533 5531 5530 5529 5528 5527 5526 5525 5524 5523 5522 5521 5520 5518 5518 5517 5516 5516 5516 5516 5516 5516
5560 5559 5557 5557 5558 5554 5552 5551 5549 5547 5547 5544 5543 5541 5538 5536 5534 5532 5530 5528 5526 5524 5522 5521 5520 5519 5517 5516 5515 5514 5513 5511 5510 5508 5507 5506 5505 5504 5503 5502 5502 5502 5501 5501
5549 5549 5547 5552 5547 5545 5543 5542 5539 5538 5536 5535 5533 5531 5529 5526 5524 5522 5520 5518 5516 5514 5513 5511 5509 5508 5507 5505 5504 5503 5501 5500 5498 5496 5494 5493 5492 5491 5490 5489 5488 5487 5486 5486
5539 5537 5537 5540 5538 5535 5533 5533 5530 5528 5527 5525 5523 5522 5520 5517 5514 5512 5511 5509 5507 5505 5503 5501 5499 5498 5496 5495 5493 5491 5490 5488 5486 5484 5482 5481 5479 5478 5476 5475 5474 5472 5472 5471
5530 5528 5528 5531 5528 5525 5524 5523 5521 5518 5517 5515 5513 5512 5511 5508 5505 5503 5501 5499 5497 5495 5493 5491 5489 5487 5486 5484 5482 5480 5478 5476 5474 5472 5470 5468 5466 5465 5463 5461 5459 5458 5457 5456
5522 5519 5519 5521 5518 5515 5515 5514 5511 5508 5507 5505 5503 5502 5500 5497 5495 5493 5492 5490 5488 5486 5484 5482 5479 5477 5475 5473 5471 5469 5467 5464 5462 5460 5458 5456 5454 5452 5450 5448 5446 5445 5444 5442
5513 5511 5513 5510 5508 5507 5505 5503 5501 5498 5497 5496 5494 5492 5490 5487 5485 5483 5481 5479 5477 5475 5473 5471 5469 5467 5464 5462 5460 5458 5455 5453 5451 5449 5446 5444 5441 5439 5436 5434 5432 5430 5429 5428
5506 5506 5504 5501 5499 5497 5495 5493 5491 5489 5488 5486 5484 5482 5480 5478 5476 5473 5471 5469 5467 5465 5463 5461 5458 5456 5454 5451 5449 5446 5444 5442 5439 5437 5434 5432 5429 5426 5424 5421 5419 5417 5415 5413
5498 5497 5495 5492 5490 5488 5486 5484 5482 5480 5479 5477 5474 5472 5470 5468 5465 5463 5461 5459 5456 5454 5452 5450 5448 5445 5443 5440 5438 5435 5433 5430 5428 5425 5423 5420 5417 5414 5411 5408 5405 5403 5401 5399
5490 5489 5487 5485 5482 5480 5477 5475 5473 5472 5470 5468 5465 5463 5461 5458 5455 5453 5451 5449 5446 5444 5442 5439 5437 5434 5432 5429 5427 5424 5422 5419 5416 5413 5411 5408 5405 5402 5399 5396 5393 5390 5388 5386
5482 5481 5478 5477 5474 5472 5470 5467 5465 5464 5462 5459 5457 5454 5452 5449 5446 5444 5441 5439 5436 5434 5431 5429 5427 5424 5421 5419 5416 5413 5411 5408 5405 5402 5399 5396 5394 5391 5387 5384 5381 5378 5376 5374
5474 5472 5470 5468 5466 5464 5461 5459 5457 5455 5453 5451 5448 5446 5443 5440 5438 5435 5433 5430 5427 5424 5421 5419 5417 5414 5412 5409 5406 5403 5401 5398 5395 5392 5389 5386 5383 5380 5377 5374 5370 5367 5364 5362
5466 5464 5462 5461 5459 5456 5454 5452 5449 5447 5445 5442 5440 5437 5434 5432 5429 5426 5424 5421 5418 5415 5412 5409 5407 5405 5402 5399 5396 5394 5391 5388 5385 5382 5379 5376 5373 5369 5366 5363 5360 5356 5353 5350
5459 5457 5456 5454 5451 5449 5447 5444 5442 5439 5437 5434 5432 5429 5426 5424 5421 5418 5415 5412 5409 5406 5403 5400 5398 5395 5393 5390 5387 5384 5381 5378 5375 5372 5369 5366 5362 5359 5355 5352 5349 5346 5343 5339
5453 5451 5449 5447 5445 5442 5439 5437 5434 5432 5429 5427 5424 5421 5418 5415 5412 5410 5407 5404 5401 5398 5395 5392 5389 5386 5384 5381 5378 5375 5372 5368 5365 5362 5359 5355 5352 5348 5345 5341 5338 5335 5332 5329
5447 5445 5443 5440 5438 5435 5433 5430 5427 5424 5422 5419 5416 5413 5410 5407 5404 5401 5398 5395 5392 5389 5386 5383 5380 5378 5375 5372 5369 5366 5362 5359 5355 5352 5348 5345 5341 5337 5334 5330 5327 5324 5321 5318
5440 5438 5436 5434 5431 5429 5426 5423 5420 5417 5414 5411 5408 5405 5402 5399 5396 5393 5390 5387 5384 5381 5378 5374 5371 5369 5366 5363 5359 5356 5353 5349 5345 5342 5338 5334 5331 5327 5323 5320 5317 5314 5311 5308
5434 5432 5430 5427 5424 5422 5419 5416 5413 5410 5407 5404 5401 5398 5394 5391 5387 5384 5381 5378 5376 5373 5369 5366 5363 5360 5356 5353 5350 5346 5343 5339 5336 5332 5328 5324 5321 5317 5314 5310 5307 5304 5301 5298
5428 5425 5423 5420 5418 5415 5413 5410 5406 5403 5400 5397 5394 5390 5387 5383 5379 5376 5373 5370 5367 5364 5361 5357 5354 5351 5348 5344 5340 5337 5333 5329 5326 5322 5318 5314 5311 5307 5304 5301 5298 5295 5292 5289
5421 5419 5416 5414 5411 5408 5405 5402 5399 5396 5393 5389 5386 5383 5379 5375 5372 5368 5365 5362 5359 5355 5352 5349 5345 5342 5338 5335 5331 5327 5324 5320 5316 5312 5308 5305 5301 5298 5295 5292 5289 5286 5283 5280
5414 5412 5409 5407 5404 5401 5398 5395 5392 5389 5385 5382 5378 5375 5371 5368 5364 5361 5357 5354 5351 5347 5343 5340 5336 5333 5329 5325 5322 5318 5314 5310 5306 5302 5298 5295 5291 5288 5285 5282 5280 5277 5274 5272
5407 5404 5402 5399 5397 5394 5391 5388 5384 5381 5378 5374 5371 5367 5363 5360 5356 5353 5350 5346 5342 5338 5335 5331 5327 5323 5319 5315 5312 5308 5303 5299 5295 5292 5288 5285 5282 5279 5276 5273 5271 5268 5266 5264
5399 5397 5394 5392 5389 5386 5383 5380 5376 5373 5370 5366 5362 5359 5355 5352 5348 5344 5341 5337 5333 5330 5326 5322 5318 5314 5310 5306 5302 5297 5293 5289 5285 5281 5278 5275 5272 5270 5267 5265 5262 5260 5258 5256
5391 5389 5386 5384 5381 5378 5375 5372 5369 5365 5362 5358 5354 5350 5347 5343 5340 5336 5332 5329 5325 5321 5318 5313 5309 5305 5301 5296 5292 5288 5283 5279 5275 5272 5268 5266 5264 5261 5259 5257 5255 5253 5251 5249
5384 5381 5379 5376 5373 5371 5368 5365 5361 5358 5354 5350 5347 5343 5339 5335 5332 5328 5325 5321 5317 5313 5309 5305 5301 5296 5292 5288 5283 5279 5274 5270 5266 5263 5260 5258 5256 5254 5252 5250 5247 5245 5244 5242
5376 5374 5371 5368 5366 5363 5360 5357 5353 5350 5346 5343 5339 5335 5331 5328 5324 5320 5317 5313 5309 5305 5301 5297 5292 5288 5283 5279 5275 5270 5266 5262 5259 5255 5253 5251 5249 5247 5245 5243 5241 5239 5237 5235